EUS6DC EGJJ-LFBD

Flight info

Callsign EUS6DC
Flight time 0h 53m
Altitude 35000
Route REN DCT NTS DCT CNA
Aircraft A320/M-SDE3FGHIRWY/LB1

Departure

Time 2026-05-05 10:14
Airport Jersey Airport (EGJJ)

Arrival

Time 2026-05-05 11:08
Airport Bordeaux–Mérignac Airport (LFBD)
Time Latitude Longitude Altitude Speed Heading
2026-05-05 09:52 49.20484 -2.19787 273 ft 0 kts 352°
2026-05-05 10:09 49.20468 -2.19783 290 ft 4 kts 345°
2026-05-05 10:09 49.20445 -2.19767 295 ft 4 kts 302°
2026-05-05 10:10 49.20441 -2.19748 295 ft 0 kts 263°
2026-05-05 10:12 49.20437 -2.19790 293 ft 6 kts 263°
2026-05-05 10:12 49.20435 -2.19877 290 ft 9 kts 282°
2026-05-05 10:12 49.20500 -2.19941 290 ft 13 kts 316°
2026-05-05 10:12 49.20535 -2.20075 294 ft 16 kts 286°
2026-05-05 10:13 49.20575 -2.20275 293 ft 24 kts 287°
2026-05-05 10:13 49.20620 -2.20522 292 ft 23 kts 280°
2026-05-05 10:13 49.20644 -2.20685 294 ft 12 kts 313°
2026-05-05 10:13 49.20705 -2.20650 291 ft 0 kts 80°
2026-05-05 10:14 49.20707 -2.20633 294 ft 17 kts 81°
2026-05-05 10:14 49.20765 -2.19956 294 ft 107 kts 82°
2026-05-05 10:14 49.20890 -2.18530 600 ft 147 kts 78°
2026-05-05 10:14 49.21022 -2.16958 1527 ft 150 kts 78°
2026-05-05 10:15 49.21094 -2.15333 2267 ft 164 kts 90°
2026-05-05 10:15 49.20724 -2.13509 2599 ft 197 kts 115°
2026-05-05 10:15 49.19694 -2.11902 3062 ft 231 kts 146°
2026-05-05 10:15 49.18162 -2.10744 3622 ft 258 kts 150°
2026-05-05 10:16 49.16506 -2.09526 4389 ft 268 kts 150°
2026-05-05 10:16 49.14819 -2.08279 5275 ft 271 kts 150°
2026-05-05 10:16 49.13109 -2.07014 6182 ft 276 kts 150°
2026-05-05 10:16 49.11365 -2.05735 7119 ft 281 kts 154°
2026-05-05 10:17 49.09434 -2.05084 7975 ft 291 kts 178°
2026-05-05 10:17 49.07391 -2.05253 8913 ft 296 kts 182°
2026-05-05 10:17 49.05324 -2.05471 9827 ft 300 kts 182°
2026-05-05 10:17 49.03202 -2.05692 10387 ft 317 kts 182°
2026-05-05 10:18 49.00930 -2.05879 10824 ft 335 kts 181°
2026-05-05 10:18 48.98576 -2.06017 11566 ft 341 kts 180°
2026-05-05 10:18 48.96192 -2.06133 12496 ft 344 kts 180°
2026-05-05 10:18 48.93779 -2.06250 13433 ft 349 kts 180°
2026-05-05 10:19 48.91337 -2.06376 14261 ft 353 kts 180°
2026-05-05 10:19 48.88869 -2.06512 15048 ft 356 kts 180°
2026-05-05 10:19 48.86386 -2.06653 15823 ft 358 kts 180°
2026-05-05 10:19 48.83924 -2.06795 16597 ft 360 kts 180°
2026-05-05 10:20 48.81416 -2.06937 17370 ft 362 kts 179°
2026-05-05 10:20 48.78894 -2.07077 18124 ft 364 kts 180°
2026-05-05 10:20 48.76357 -2.07219 18766 ft 366 kts 180°
2026-05-05 10:20 48.73799 -2.07367 19388 ft 369 kts 180°
2026-05-05 10:21 48.71227 -2.07517 20004 ft 371 kts 180°
2026-05-05 10:21 48.68634 -2.07665 20624 ft 374 kts 180°
2026-05-05 10:21 48.66023 -2.07814 21217 ft 377 kts 180°
2026-05-05 10:21 48.63391 -2.07963 21800 ft 380 kts 180°
2026-05-05 10:22 48.60739 -2.08035 22379 ft 382 kts 175°
2026-05-05 10:22 48.58111 -2.07486 22927 ft 382 kts 164°
2026-05-05 10:22 48.55583 -2.06235 23490 ft 383 kts 154°
2026-05-05 10:22 48.53143 -2.04600 23972 ft 385 kts 154°
2026-05-05 10:23 48.50685 -2.02961 24471 ft 387 kts 154°
2026-05-05 10:23 48.48211 -2.01321 24970 ft 389 kts 154°
2026-05-05 10:23 48.45729 -1.99675 25462 ft 391 kts 154°
2026-05-05 10:23 48.43240 -1.98024 25933 ft 392 kts 154°
2026-05-05 10:24 48.40737 -1.96367 26398 ft 394 kts 154°
2026-05-05 10:24 48.38228 -1.94710 26847 ft 395 kts 154°
2026-05-05 10:24 48.35699 -1.93041 27319 ft 397 kts 153°
2026-05-05 10:24 48.33163 -1.91367 27760 ft 399 kts 153°
2026-05-05 10:25 48.30613 -1.89685 28193 ft 401 kts 153°
2026-05-05 10:25 48.28051 -1.87999 28619 ft 403 kts 153°
2026-05-05 10:25 48.25476 -1.86306 29091 ft 405 kts 153°
2026-05-05 10:25 48.22887 -1.84607 29595 ft 407 kts 153°
2026-05-05 10:26 48.20285 -1.82903 30088 ft 410 kts 153°
2026-05-05 10:26 48.17663 -1.81187 30474 ft 412 kts 154°
2026-05-05 10:26 48.15034 -1.79471 30809 ft 413 kts 154°
2026-05-05 10:26 48.12396 -1.77749 31141 ft 414 kts 154°
2026-05-05 10:27 48.09746 -1.76020 31470 ft 416 kts 154°
2026-05-05 10:27 48.07016 -1.74560 31848 ft 418 kts 163°
2026-05-05 10:27 48.04199 -1.73770 32312 ft 418 kts 171°
2026-05-05 10:27 48.01272 -1.73341 32797 ft 416 kts 172°
2026-05-05 10:28 47.98436 -1.72934 33288 ft 414 kts 172°
2026-05-05 10:28 47.95579 -1.72528 33784 ft 411 kts 172°
2026-05-05 10:28 47.92737 -1.72125 34197 ft 410 kts 172°
2026-05-05 10:28 47.89896 -1.71724 34489 ft 411 kts 173°
2026-05-05 10:29 47.87047 -1.71320 34746 ft 412 kts 173°
2026-05-05 10:29 47.84184 -1.70912 34881 ft 414 kts 173°
2026-05-05 10:29 47.78499 -1.70098 34907 ft 409 kts 173°
2026-05-05 10:30 47.72833 -1.69292 34903 ft 409 kts 173°
2026-05-05 10:30 47.67154 -1.68485 34900 ft 411 kts 173°
2026-05-05 10:31 47.61459 -1.67670 34901 ft 412 kts 173°
2026-05-05 10:31 47.55746 -1.66863 34901 ft 412 kts 173°
2026-05-05 10:32 47.50032 -1.66062 34892 ft 413 kts 173°
2026-05-05 10:32 47.44311 -1.65257 34891 ft 413 kts 173°
2026-05-05 10:33 47.38621 -1.64446 34893 ft 414 kts 173°
2026-05-05 10:33 47.32896 -1.63633 34889 ft 415 kts 173°
2026-05-05 10:34 47.27126 -1.62835 34899 ft 416 kts 173°
2026-05-05 10:34 47.21356 -1.62039 34897 ft 417 kts 173°
2026-05-05 10:35 47.15685 -1.60420 34897 ft 416 kts 158°
2026-05-05 10:35 47.10613 -1.56397 34897 ft 415 kts 148°
2026-05-05 10:36 47.05670 -1.51978 34895 ft 417 kts 148°
2026-05-05 10:36 47.00711 -1.47571 34892 ft 417 kts 148°
2026-05-05 10:37 46.95740 -1.43161 34901 ft 418 kts 149°
2026-05-05 10:37 46.90795 -1.38775 34897 ft 419 kts 149°
2026-05-05 10:38 46.85808 -1.34366 34901 ft 419 kts 149°
2026-05-05 10:38 46.80815 -1.29967 34905 ft 419 kts 149°
2026-05-05 10:39 46.75820 -1.25567 34906 ft 420 kts 149°
2026-05-05 10:39 46.70822 -1.21173 34902 ft 420 kts 149°
2026-05-05 10:40 46.65817 -1.16781 34901 ft 420 kts 149°
2026-05-05 10:40 46.60808 -1.12391 34900 ft 420 kts 149°
2026-05-05 10:41 46.55797 -1.08016 34902 ft 420 kts 149°
2026-05-05 10:41 46.50777 -1.03646 34896 ft 421 kts 149°
2026-05-05 10:42 46.44089 -0.97841 34898 ft 421 kts 150°
2026-05-05 10:43 46.39058 -0.93486 34902 ft 421 kts 150°
2026-05-05 10:43 46.34026 -0.89128 34878 ft 422 kts 150°
2026-05-05 10:43 46.30692 -0.86252 34441 ft 417 kts 150°
2026-05-05 10:44 46.29010 -0.84803 34109 ft 415 kts 150°
2026-05-05 10:44 46.26536 -0.82670 33516 ft 413 kts 149°
2026-05-05 10:44 46.24076 -0.80553 33001 ft 409 kts 149°
2026-05-05 10:44 46.21641 -0.78460 32447 ft 406 kts 149°
2026-05-05 10:45 46.19257 -0.76413 31910 ft 403 kts 148°
2026-05-05 10:45 46.16858 -0.74355 31364 ft 400 kts 148°
2026-05-05 10:45 46.14473 -0.72310 30817 ft 398 kts 148°
2026-05-05 10:45 46.12101 -0.70280 30250 ft 396 kts 147°
2026-05-05 10:46 46.09738 -0.68259 29624 ft 394 kts 147°
2026-05-05 10:46 46.07391 -0.66253 29070 ft 390 kts 148°
2026-05-05 10:46 46.05072 -0.64272 28528 ft 386 kts 148°
2026-05-05 10:46 46.02775 -0.62312 27990 ft 382 kts 148°
2026-05-05 10:47 46.00505 -0.60376 27455 ft 378 kts 148°
2026-05-05 10:47 45.98249 -0.58457 26926 ft 374 kts 148°
2026-05-05 10:47 45.96018 -0.56558 26406 ft 371 kts 148°
2026-05-05 10:47 45.93807 -0.54673 25897 ft 368 kts 148°
2026-05-05 10:48 45.91610 -0.52804 25404 ft 365 kts 148°
2026-05-05 10:48 45.89431 -0.50954 24915 ft 362 kts 148°
2026-05-05 10:48 45.87267 -0.49123 24444 ft 359 kts 148°
2026-05-05 10:48 45.85120 -0.47310 23978 ft 357 kts 148°
2026-05-05 10:49 45.82988 -0.45512 23532 ft 354 kts 148°
2026-05-05 10:49 45.80869 -0.43728 23046 ft 352 kts 149°
2026-05-05 10:49 45.78773 -0.41957 22611 ft 347 kts 149°
2026-05-05 10:49 45.76698 -0.40202 22195 ft 345 kts 149°
2026-05-05 10:50 45.74636 -0.38462 21770 ft 343 kts 149°
2026-05-05 10:50 45.72585 -0.36735 21352 ft 341 kts 149°
2026-05-05 10:50 45.70547 -0.35022 20925 ft 339 kts 149°
2026-05-05 10:50 45.68545 -0.33340 20481 ft 337 kts 149°
2026-05-05 10:51 45.66427 -0.31834 20044 ft 335 kts 159°
2026-05-05 10:51 45.64170 -0.30910 19603 ft 345 kts 169°
2026-05-05 10:51 45.61787 -0.30469 19136 ft 353 kts 173°
2026-05-05 10:51 45.59346 -0.30076 18657 ft 353 kts 173°
2026-05-05 10:52 45.56911 -0.29683 18187 ft 351 kts 174°
2026-05-05 10:52 45.54490 -0.29290 17677 ft 349 kts 174°
2026-05-05 10:52 45.52086 -0.28899 17210 ft 347 kts 174°
2026-05-05 10:52 45.49697 -0.28507 16750 ft 344 kts 174°
2026-05-05 10:53 45.47324 -0.28118 16297 ft 342 kts 174°
2026-05-05 10:53 45.44954 -0.27730 15824 ft 344 kts 174°
2026-05-05 10:53 45.42570 -0.27337 15361 ft 346 kts 174°
2026-05-05 10:53 45.40186 -0.26944 14907 ft 344 kts 174°
2026-05-05 10:54 45.37823 -0.26559 14441 ft 341 kts 174°
2026-05-05 10:54 45.35472 -0.26179 13985 ft 339 kts 174°
2026-05-05 10:54 45.33138 -0.25801 13506 ft 337 kts 174°
2026-05-05 10:54 45.30818 -0.25426 13034 ft 333 kts 174°
2026-05-05 10:55 45.28531 -0.25055 12595 ft 329 kts 174°
2026-05-05 10:55 45.26270 -0.24689 12157 ft 325 kts 174°
2026-05-05 10:55 45.24033 -0.24327 11723 ft 322 kts 174°
2026-05-05 10:55 45.21817 -0.23967 11290 ft 319 kts 174°
2026-05-05 10:56 45.19619 -0.23724 10858 ft 316 kts 182°
2026-05-05 10:56 45.17470 -0.24225 10441 ft 313 kts 198°
2026-05-05 10:56 45.15538 -0.25514 10254 ft 302 kts 213°
2026-05-05 10:56 45.13956 -0.27361 10132 ft 290 kts 225°
2026-05-05 10:57 45.12568 -0.29365 9941 ft 281 kts 225°
2026-05-05 10:57 45.11210 -0.31323 9866 ft 277 kts 224°
2026-05-05 10:57 45.09715 -0.32942 9764 ft 266 kts 208°
2026-05-05 10:57 45.08046 -0.33862 9563 ft 251 kts 193°
2026-05-05 10:58 45.06335 -0.34185 9085 ft 246 kts 186°
2026-05-05 10:58 45.04643 -0.34413 8573 ft 242 kts 187°
2026-05-05 10:58 45.02976 -0.34646 8228 ft 240 kts 187°
2026-05-05 10:58 45.01320 -0.34882 7903 ft 239 kts 187°
2026-05-05 10:59 44.99693 -0.35116 7596 ft 238 kts 187°
2026-05-05 10:59 44.98051 -0.35355 7287 ft 237 kts 187°
2026-05-05 10:59 44.96413 -0.35589 6975 ft 236 kts 188°
2026-05-05 10:59 44.94777 -0.35823 6666 ft 236 kts 188°
2026-05-05 11:00 44.93148 -0.36055 6355 ft 235 kts 187°
2026-05-05 11:00 44.91522 -0.36289 6038 ft 235 kts 188°
2026-05-05 11:00 44.89902 -0.36521 5723 ft 233 kts 188°
2026-05-05 11:00 44.88289 -0.36750 5424 ft 232 kts 188°
2026-05-05 11:01 44.86682 -0.36977 5137 ft 231 kts 188°
2026-05-05 11:01 44.85093 -0.37250 4849 ft 229 kts 195°
2026-05-05 11:01 44.83571 -0.37869 4548 ft 228 kts 198°
2026-05-05 11:01 44.82054 -0.38511 4215 ft 227 kts 199°
2026-05-05 11:02 44.80541 -0.39150 3904 ft 227 kts 199°
2026-05-05 11:02 44.79053 -0.39779 3765 ft 218 kts 199°
2026-05-05 11:02 44.77718 -0.40617 3665 ft 205 kts 223°
2026-05-05 11:02 44.76986 -0.42220 3577 ft 194 kts 256°
2026-05-05 11:03 44.77049 -0.44097 3279 ft 196 kts 285°
2026-05-05 11:03 44.77445 -0.45929 3056 ft 193 kts 286°
2026-05-05 11:03 44.77823 -0.47674 3012 ft 181 kts 285°
2026-05-05 11:03 44.78182 -0.49357 3008 ft 179 kts 285°
2026-05-05 11:04 44.78537 -0.51030 2910 ft 178 kts 285°
2026-05-05 11:04 44.78890 -0.52694 2715 ft 177 kts 285°
2026-05-05 11:04 44.79241 -0.54349 2492 ft 177 kts 285°
2026-05-05 11:04 44.79588 -0.55988 2259 ft 171 kts 285°
2026-05-05 11:05 44.79914 -0.57527 2041 ft 159 kts 285°
2026-05-05 11:05 44.80218 -0.58964 1827 ft 148 kts 285°
2026-05-05 11:05 44.80508 -0.60336 1628 ft 143 kts 284°
2026-05-05 11:05 44.80788 -0.61664 1434 ft 141 kts 285°
2026-05-05 11:06 44.81066 -0.62986 1256 ft 141 kts 285°
2026-05-05 11:06 44.81341 -0.64287 1053 ft 140 kts 285°
2026-05-05 11:06 44.81620 -0.65611 853 ft 141 kts 285°
2026-05-05 11:06 44.81900 -0.66942 664 ft 141 kts 284°
2026-05-05 11:07 44.82179 -0.68269 462 ft 143 kts 284°
2026-05-05 11:07 44.82460 -0.69600 294 ft 142 kts 285°
2026-05-05 11:07 44.82736 -0.70913 166 ft 129 kts 285°
2026-05-05 11:07 44.82912 -0.71757 166 ft 55 kts 286°
2026-05-05 11:08 44.82983 -0.72090 165 ft 18 kts 288°
2026-05-05 11:08 44.83056 -0.72126 164 ft 11 kts 18°
2026-05-05 11:08 44.83118 -0.72100 164 ft 8 kts 20°
2026-05-05 11:08 44.83156 -0.72058 164 ft 6 kts 60°
2026-05-05 11:09 44.83163 -0.71993 164 ft 7 kts 96°
2026-05-05 11:09 44.83147 -0.71909 164 ft 13 kts 107°
2026-05-05 11:09 44.83122 -0.71789 165 ft 15 kts 107°
2026-05-05 11:09 44.83084 -0.71619 165 ft 18 kts 107°
2026-05-05 11:10 44.83048 -0.71452 165 ft 17 kts 107°
2026-05-05 11:10 44.83015 -0.71295 164 ft 18 kts 106°
2026-05-05 11:10 44.82975 -0.71108 164 ft 19 kts 107°
2026-05-05 11:10 44.82936 -0.70921 165 ft 21 kts 106°
2026-05-05 11:11 44.82892 -0.70716 166 ft 23 kts 105°
2026-05-05 11:11 44.82847 -0.70493 167 ft 25 kts 107°
2026-05-05 11:11 44.82805 -0.70293 168 ft 21 kts 107°
2026-05-05 11:11 44.82822 -0.70168 168 ft 13 kts 47°
2026-05-05 11:12 44.82818 -0.70049 168 ft 10 kts 105°
2026-05-05 11:12 44.82832 -0.69988 168 ft 4 kts 26°
2026-05-05 11:12 44.82854 -0.69975 168 ft 3 kts 20°
2026-05-05 11:12 44.82859 -0.69973 168 ft 0 kts 19°